SL-19 DEB, 23486

Orbit data source: Space-Track

SL-19 DEB, 23486 is space debris in LEO originally from a launch on Mon, 26 Dec 1994 UTC launched from the Tyuratam Missile And Space Complex (TTMTR). Debris objects in space refer to the collection of defunct objects orbiting the Earth. Examples of debris include non-operational satellites, rocket bodies, and fragments generated from explosions, collisions, or faulty payload assembly.

Loading next visibility...
Identifier
23486, 1994-085J
Orbit
LEO
Last TLE update
3 days ago
Origin
Manufacturer
Unknown
Mission
Spacecraft
Bus & Motor
Unknown
Mass
Unknown
Launch date (UTC)
1994-12-26 (31 years ago)
Launch vehicle
Unknown
Launch site
Tyuratam Missile And Space Complex (TTMTR)
Object type
Payload
Rocket body
Debris
Shape & HBR
Unknown
Radar Cross Section
Small (<0.1 m²)

Expand to show TLE details & history

TLE from 3 days ago
0 SL-19 DEB
1 23486U 94085J   25180.69290832 -.00000190  00000-0 -42513-2 0  9993
2 23486  64.9178 329.4200 0179630 305.3416  71.9341 11.25678232252920
Epoch: 2025-06-29T16:37Z
TLE epoch observation values (Epoch: 2025-06-29T16:37:47.278Z)
Latitude
17.37563°
Longitude
170.34215°
Altitude
1,988.531 km
Speed
6.923 km/s
True Right ascension
22h 31m 12s
True Declination
17° 17' 32"
Sunlit
Object was in daylight at epoch
Visualization orbit readout
Latitude
-48.36508°
Longitude
124.82303°
Altitude
1,898.429 km
Speed
7.003 km/s
Apparent Right ascension
22h 57m 03s
Apparent Declination
-61° 01' 33"
Sunlit
Object is in full shadow
Visualization observer readout
Local Sidereal Time
15:06:22
Azimuth
140.833° SSE
Elevation
-47.214°
Doppler factor
1
Orbital elements
Apogee altitude
2,181.636 km
Perigee altitude
1,879.544 km
Semi-major axis
8,408.727 km
Eccentricity
0.01796
Inclination
64.9178°
RAAN
329.42°
Arg. of periapsis
305.3416°
True anomaly
Unknown
Mean anomaly
71.9341°
Eccentric anomaly
Unknown
Mean motion
2.8148 °/min
Orbital period
127.9 mins
BSTAR
-0.0042513
Loading maneuver chart data...
Loading SW <> Apogee altitude chart data...
Loading historical data...
Loading historical data...
Loading historical data...
Loading historical data...
Loading historical data...
Loading historical data...
Loading historical data...

SL-19 DEB Visibility forecast

Observer location: undefined°, undefined°

Span
Click to sort rows by Start time (UTC) header in descending order
Start Az.
Max El. time (UTC)
Max El. Az.
Max El.
End time (UTC)
End Az.
21 mins2025-07-03 10:08:12.436Z180.294° SSW2025-07-03 10:18:12.436Z110.131° ESE38.13°2025-07-03 10:29:12.436Z39.71° NE
21 mins2025-07-03 12:21:12.436Z242.393° WSW2025-07-03 12:31:12.436Z317.576° NNW37.784°2025-07-03 12:42:12.436Z27.385° NE
16 mins2025-07-03 14:40:12.436Z302.614° NW2025-07-03 14:47:12.436Z342.534° N20.955°2025-07-03 14:56:12.436Z31.901° NE
17 mins2025-07-03 16:58:12.436Z334.57° NNW2025-07-03 17:06:12.436Z20.091° NNE23.156°2025-07-03 17:15:12.436Z70.705° E
22 mins2025-07-03 19:12:12.436Z333.828° NNW2025-07-03 19:22:12.436Z45.518° ENE41.478°2025-07-03 19:34:12.436Z130.794° SE
20 mins2025-07-03 21:25:12.436Z313.805° NW2025-07-03 21:35:12.436Z248.317° W33.661°2025-07-03 21:45:12.436Z189.569° SSW
|